Time,TemperatureF,DewpointF,PressureIn,WindDirection,WindDirectionDegrees,WindSpeedMPH,WindSpeedGustMPH,Humidity,HourlyPrecipIn,Conditions,Clouds,dailyrainin,SolarRadiationWatts/m^2,SoftwareType,DateUTC
2017-02-19 00:00:00,18.4,16.2,29.46,WNW,298,0.0,0.0,91,0.00,,,0.00,0,WeatherCatV2.40B198,2017-02-19 05:00:00,
2017-02-19 00:05:00,18.5,16.3,29.46,WNW,298,0.0,0.0,91,0.00,,,0.00,0,WeatherCatV2.40B198,2017-02-19 05:05:00,
2017-02-19 00:10:00,18.7,16.5,29.46,WNW,298,0.0,0.0,91,0.00,,,0.00,0,WeatherCatV2.40B198,2017-02-19 05:10:00,
2017-02-19 00:16:00,18.8,16.6,29.46,WNW,298,0.0,0.0,91,0.00,,,0.00,0,WeatherCatV2.40B198,2017-02-19 05:16:00,
2017-02-19 00:21:00,19.0,16.8,29.46,WNW,298,0.0,0.0,91,0.00,,,0.00,0,WeatherCatV2.40B198,2017-02-19 05:21:00,
2017-02-19 00:26:00,19.0,16.8,29.46,WNW,298,0.0,0.0,91,0.00,,,0.00,0,WeatherCatV2.40B198,2017-02-19 05:26:00,
2017-02-19 00:31:00,19.0,16.6,29.47,WNW,296,0.0,0.0,90,0.00,,,0.00,0,WeatherCatV2.40B198,2017-02-19 05:31:00,
2017-02-19 00:36:00,19.0,16.3,29.47,WNW,297,0.0,0.0,89,0.00,,,0.00,0,WeatherCatV2.40B198,2017-02-19 05:36:00,
2017-02-19 00:41:00,18.9,15.9,29.47,WNW,297,0.0,0.0,88,0.00,,,0.00,0,WeatherCatV2.40B198,2017-02-19 05:41:00,
2017-02-19 00:46:00,18.8,15.9,29.47,WNW,297,0.0,0.0,88,0.00,,,0.00,0,WeatherCatV2.40B198,2017-02-19 05:46:00,
2017-02-19 00:51:00,18.7,15.8,29.47,WNW,297,0.0,0.0,88,0.00,,,0.00,0,WeatherCatV2.40B198,2017-02-19 05:51:00,
2017-02-19 00:56:00,18.6,15.9,29.47,North,355,0.0,4.0,89,0.00,,,0.00,0,WeatherCatV2.40B198,2017-02-19 05:56:00,
2017-02-19 01:01:00,18.6,15.9,29.47,North,355,0.0,0.0,89,0.00,,,0.00,0,WeatherCatV2.40B198,2017-02-19 06:01:00,
2017-02-19 01:06:00,18.6,16.2,29.47,North,355,0.0,0.0,90,0.00,,,0.00,0,WeatherCatV2.40B198,2017-02-19 06:06:00,
2017-02-19 01:11:00,18.7,16.3,29.48,North,355,0.0,0.0,90,0.00,,,0.00,0,WeatherCatV2.40B198,2017-02-19 06:11:00,
2017-02-19 01:16:00,18.7,16.3,29.48,North,355,0.0,1.0,90,0.00,,,0.00,0,WeatherCatV2.40B198,2017-02-19 06:16:00,
2017-02-19 01:21:00,18.6,15.6,29.48,North,355,0.0,1.0,88,0.00,,,0.00,0,WeatherCatV2.40B198,2017-02-19 06:21:00,
2017-02-19 01:26:00,18.5,15.8,29.49,North,355,0.0,0.0,89,0.00,,,0.00,0,WeatherCatV2.40B198,2017-02-19 06:26:00,
2017-02-19 01:31:00,18.5,16.1,29.49,North,355,0.0,0.0,90,0.00,,,0.00,0,WeatherCatV2.40B198,2017-02-19 06:31:00,
2017-02-19 01:36:00,18.5,15.8,29.49,North,355,0.0,0.0,89,0.00,,,0.00,0,WeatherCatV2.40B198,2017-02-19 06:36:00,
2017-02-19 01:41:00,18.4,15.7,29.50,North,355,0.0,0.0,89,0.00,,,0.00,0,WeatherCatV2.40B198,2017-02-19 06:41:00,
2017-02-19 01:46:00,18.5,16.3,29.50,North,355,0.0,0.0,91,0.00,,,0.00,0,WeatherCatV2.40B198,2017-02-19 06:46:00,
2017-02-19 01:51:00,18.4,16.0,29.50,North,355,0.0,0.0,90,0.00,,,0.00,0,WeatherCatV2.40B198,2017-02-19 06:51:00,
2017-02-19 01:56:00,18.3,15.6,29.50,North,355,0.0,0.0,89,0.00,,,0.00,0,WeatherCatV2.40B198,2017-02-19 06:56:00,
2017-02-19 02:01:00,18.4,16.2,29.50,North,355,0.0,0.0,91,0.00,,,0.00,0,WeatherCatV2.40B198,2017-02-19 07:01:00,
2017-02-19 02:06:00,18.5,16.6,29.50,North,355,0.0,0.0,92,0.00,,,0.00,0,WeatherCatV2.40B198,2017-02-19 07:06:00,
2017-02-19 02:11:00,18.7,16.8,29.49,North,355,0.0,0.0,92,0.00,,,0.00,0,WeatherCatV2.40B198,2017-02-19 07:11:00,
2017-02-19 02:16:00,18.7,16.8,29.50,North,355,0.0,0.0,92,0.00,,,0.00,0,WeatherCatV2.40B198,2017-02-19 07:16:00,
2017-02-19 02:21:00,18.7,16.8,29.49,North,355,0.0,0.0,92,0.00,,,0.00,0,WeatherCatV2.40B198,2017-02-19 07:21:00,
2017-02-19 02:26:00,18.6,16.4,29.50,North,355,0.0,0.0,91,0.00,,,0.00,0,WeatherCatV2.40B198,2017-02-19 07:26:00,
2017-02-19 02:31:00,18.5,16.3,29.50,North,355,0.0,0.0,91,0.00,,,0.00,0,WeatherCatV2.40B198,2017-02-19 07:31:00,
2017-02-19 02:36:00,18.5,16.3,29.50,North,355,0.0,0.0,91,0.00,,,0.00,0,WeatherCatV2.40B198,2017-02-19 07:36:00,
2017-02-19 02:41:00,18.3,15.9,29.50,North,355,0.0,0.0,90,0.00,,,0.00,0,WeatherCatV2.40B198,2017-02-19 07:41:00,
2017-02-19 02:46:00,18.2,15.8,29.51,North,355,0.0,1.0,90,0.00,,,0.00,0,WeatherCatV2.40B198,2017-02-19 07:46:00,
2017-02-19 02:51:00,18.2,16.0,29.50,North,355,0.0,0.0,91,0.00,,,0.00,0,WeatherCatV2.40B198,2017-02-19 07:51:00,
2017-02-19 02:56:00,18.3,16.4,29.50,North,355,0.0,0.0,92,0.00,,,0.00,0,WeatherCatV2.40B198,2017-02-19 07:56:00,
2017-02-19 03:01:00,18.5,16.8,29.50,North,355,0.0,0.0,93,0.00,,,0.00,0,WeatherCatV2.40B198,2017-02-19 08:01:00,
2017-02-19 03:06:00,18.6,16.9,29.50,North,355,0.0,0.0,93,0.00,,,0.00,0,WeatherCatV2.40B198,2017-02-19 08:06:00,
2017-02-19 03:11:00,18.6,16.9,29.50,North,355,1.0,2.0,93,0.00,,,0.00,0,WeatherCatV2.40B198,2017-02-19 08:11:00,
2017-02-19 03:16:00,18.5,16.6,29.50,North,355,0.0,0.0,92,0.00,,,0.00,0,WeatherCatV2.40B198,2017-02-19 08:16:00,
2017-02-19 03:21:00,18.4,16.5,29.51,North,355,0.0,1.0,92,0.00,,,0.00,0,WeatherCatV2.40B198,2017-02-19 08:21:00,
2017-02-19 03:26:00,18.5,16.6,29.50,North,355,0.0,0.0,92,0.00,,,0.00,0,WeatherCatV2.40B198,2017-02-19 08:26:00,
2017-02-19 03:31:00,18.5,16.6,29.50,North,355,0.0,0.0,92,0.00,,,0.00,0,WeatherCatV2.40B198,2017-02-19 08:31:00,
2017-02-19 03:36:00,18.5,16.6,29.51,North,355,0.0,0.0,92,0.00,,,0.00,0,WeatherCatV2.40B198,2017-02-19 08:36:00,
2017-02-19 03:41:00,18.7,17.0,29.51,North,355,0.0,0.0,93,0.00,,,0.00,0,WeatherCatV2.40B198,2017-02-19 08:41:00,
2017-02-19 03:46:00,18.6,16.9,29.51,North,355,0.0,0.0,93,0.00,,,0.00,0,WeatherCatV2.40B198,2017-02-19 08:46:00,
2017-02-19 03:51:00,18.6,16.9,29.51,North,355,1.0,1.0,93,0.00,,,0.00,0,WeatherCatV2.40B198,2017-02-19 08:51:00,
2017-02-19 03:56:00,18.7,17.0,29.51,North,355,0.0,0.0,93,0.00,,,0.00,0,WeatherCatV2.40B198,2017-02-19 08:56:00,
2017-02-19 04:01:00,18.7,17.0,29.52,SW,227,0.0,0.0,93,0.00,,,0.00,0,WeatherCatV2.40B198,2017-02-19 09:01:00,
2017-02-19 04:06:00,18.7,17.0,29.52,SW,234,0.0,1.0,93,0.00,,,0.00,0,WeatherCatV2.40B198,2017-02-19 09:06:00,
2017-02-19 04:11:00,18.9,17.2,29.52,SW,233,0.0,1.0,93,0.00,,,0.00,0,WeatherCatV2.40B198,2017-02-19 09:11:00,
2017-02-19 04:16:00,19.2,17.8,29.52,SW,234,0.0,0.0,94,0.00,,,0.00,0,WeatherCatV2.40B198,2017-02-19 09:16:00,
2017-02-19 04:21:00,19.3,17.9,29.52,SW,234,0.0,0.0,94,0.00,,,0.00,0,WeatherCatV2.40B198,2017-02-19 09:21:00,
2017-02-19 04:26:00,19.5,18.1,29.53,SW,236,0.0,0.0,94,0.00,,,0.00,0,WeatherCatV2.40B198,2017-02-19 09:26:00,
2017-02-19 04:31:00,19.7,18.5,29.53,SW,236,0.0,0.0,95,0.00,,,0.00,0,WeatherCatV2.40B198,2017-02-19 09:31:00,
2017-02-19 04:36:00,19.8,18.6,29.53,NW,325,0.0,2.0,95,0.00,,,0.00,0,WeatherCatV2.40B198,2017-02-19 09:36:00,
2017-02-19 04:41:00,19.9,18.5,29.53,NW,325,0.0,0.0,94,0.00,,,0.00,0,WeatherCatV2.40B198,2017-02-19 09:41:00,
2017-02-19 04:46:00,19.9,18.5,29.53,NW,325,0.0,0.0,94,0.00,,,0.00,0,WeatherCatV2.40B198,2017-02-19 09:46:00,
2017-02-19 04:51:00,20.0,18.6,29.53,West,280,0.0,1.0,94,0.00,,,0.00,0,WeatherCatV2.40B198,2017-02-19 09:51:00,
2017-02-19 04:56:00,20.3,19.1,29.53,WNW,282,0.0,0.0,95,0.00,,,0.00,0,WeatherCatV2.40B198,2017-02-19 09:56:00,
2017-02-19 05:01:00,20.5,19.3,29.53,WNW,282,0.0,0.0,95,0.00,,,0.00,0,WeatherCatV2.40B198,2017-02-19 10:01:00,
2017-02-19 05:06:00,20.5,19.3,29.53,NW,308,0.0,0.0,95,0.00,,,0.00,0,WeatherCatV2.40B198,2017-02-19 10:06:00,
2017-02-19 05:11:00,20.6,19.4,29.54,SE,142,0.0,0.0,95,0.00,,,0.00,0,WeatherCatV2.40B198,2017-02-19 10:11:00,
2017-02-19 05:12:00,20.6,19.4,29.54,SE,141,0.0,1.0,95,0.00,,,0.00,0,WeatherCatV2.40B198,2017-02-19 10:12:00,
2017-02-19 05:17:00,20.7,19.5,29.55,NW,324,0.0,2.0,95,0.00,,,0.00,0,WeatherCatV2.40B198,2017-02-19 10:17:00,
2017-02-19 05:22:00,20.9,19.7,29.54,WNW,292,0.0,0.0,95,0.00,,,0.00,0,WeatherCatV2.40B198,2017-02-19 10:22:00,
2017-02-19 05:27:00,21.0,19.8,29.54,WNW,292,0.0,0.0,95,0.00,,,0.00,0,WeatherCatV2.40B198,2017-02-19 10:27:00,
2017-02-19 05:32:00,21.2,20.0,29.54,WNW,292,0.0,0.0,95,0.00,,,0.00,0,WeatherCatV2.40B198,2017-02-19 10:32:00,
2017-02-19 05:37:00,21.3,20.1,29.54,North,9,0.0,4.0,95,0.00,,,0.00,0,WeatherCatV2.40B198,2017-02-19 10:37:00,
2017-02-19 05:42:00,21.6,20.4,29.54,North,9,0.0,0.0,95,0.00,,,0.00,0,WeatherCatV2.40B198,2017-02-19 10:42:00,
2017-02-19 05:47:00,21.7,20.5,29.55,North,9,0.0,0.0,95,0.00,,,0.00,0,WeatherCatV2.40B198,2017-02-19 10:47:00,
2017-02-19 05:52:00,21.8,20.6,29.55,North,9,0.0,0.0,95,0.00,,,0.00,0,WeatherCatV2.40B198,2017-02-19 10:52:00,
2017-02-19 05:57:00,22.0,21.0,29.55,North,9,0.0,1.0,96,0.00,,,0.00,0,WeatherCatV2.40B198,2017-02-19 10:57:00,
2017-02-19 06:02:00,22.2,21.2,29.55,North,9,0.0,0.0,96,0.00,,,0.00,0,WeatherCatV2.40B198,2017-02-19 11:02:00,
2017-02-19 06:07:00,22.2,21.0,29.56,North,11,0.0,3.0,95,0.00,,,0.00,0,WeatherCatV2.40B198,2017-02-19 11:07:00,
2017-02-19 06:12:00,22.4,21.4,29.56,North,11,0.0,0.0,96,0.00,,,0.00,0,WeatherCatV2.40B198,2017-02-19 11:12:00,
2017-02-19 06:17:00,22.8,21.8,29.56,North,9,0.0,0.0,96,0.00,,,0.00,0,WeatherCatV2.40B198,2017-02-19 11:17:00,
2017-02-19 06:22:00,23.5,22.8,29.56,North,9,0.0,1.0,97,0.00,,,0.00,0,WeatherCatV2.40B198,2017-02-19 11:22:00,
2017-02-19 06:27:00,24.2,23.5,29.56,North,9,0.0,0.0,97,0.00,,,0.00,0,WeatherCatV2.40B198,2017-02-19 11:27:00,
2017-02-19 06:32:00,24.6,23.9,29.56,North,9,0.0,0.0,97,0.00,,,0.00,0,WeatherCatV2.40B198,2017-02-19 11:32:00,
2017-02-19 06:37:00,25.1,24.4,29.56,North,9,0.0,0.0,97,0.00,,,0.00,0,WeatherCatV2.40B198,2017-02-19 11:37:00,
2017-02-19 06:42:00,25.7,25.0,29.56,North,9,0.0,0.0,97,0.00,,,0.00,0,WeatherCatV2.40B198,2017-02-19 11:42:00,
2017-02-19 06:47:00,26.5,25.8,29.56,North,9,0.0,0.0,97,0.00,,,0.00,0,WeatherCatV2.40B198,2017-02-19 11:47:00,
2017-02-19 06:52:00,26.9,26.2,29.57,North,9,0.0,1.0,97,0.00,,,0.00,0,WeatherCatV2.40B198,2017-02-19 11:52:00,
2017-02-19 06:57:00,27.6,26.9,29.57,North,9,0.0,1.0,97,0.00,,,0.00,0,WeatherCatV2.40B198,2017-02-19 11:57:00,
2017-02-19 07:02:00,27.9,27.4,29.57,North,9,0.0,0.0,98,0.00,,,0.00,0,WeatherCatV2.40B198,2017-02-19 12:02:00,
2017-02-19 07:07:00,28.1,27.4,29.57,NW,311,0.0,1.0,97,0.00,,,0.00,0,WeatherCatV2.40B198,2017-02-19 12:07:00,
2017-02-19 07:13:00,28.7,28.2,29.57,WSW,250,0.0,3.0,98,0.00,,,0.00,0,WeatherCatV2.40B198,2017-02-19 12:13:00,
2017-02-19 07:18:00,29.3,28.8,29.57,WSW,250,0.0,0.0,98,0.00,,,0.00,0,WeatherCatV2.40B198,2017-02-19 12:18:00,
2017-02-19 07:23:00,29.7,29.2,29.58,WSW,250,0.0,0.0,98,0.00,,,0.00,0,WeatherCatV2.40B198,2017-02-19 12:23:00,
2017-02-19 07:28:00,29.9,29.4,29.58,WSW,250,0.0,0.0,98,0.00,,,0.00,0,WeatherCatV2.40B198,2017-02-19 12:28:00,
2017-02-19 07:33:00,29.9,29.4,29.59,WSW,250,0.0,0.0,98,0.00,,,0.00,0,WeatherCatV2.40B198,2017-02-19 12:33:00,
2017-02-19 07:38:00,30.0,29.5,29.59,WSW,250,0.0,0.0,98,0.00,,,0.00,0,WeatherCatV2.40B198,2017-02-19 12:38:00,
2017-02-19 07:43:00,29.9,29.4,29.59,WSW,250,0.0,0.0,98,0.00,,,0.00,0,WeatherCatV2.40B198,2017-02-19 12:43:00,
2017-02-19 07:48:00,29.9,29.1,29.60,WSW,248,0.0,0.0,97,0.00,,,0.00,0,WeatherCatV2.40B198,2017-02-19 12:48:00,
2017-02-19 07:53:00,29.9,29.1,29.59,WSW,248,0.0,0.0,97,0.00,,,0.00,0,WeatherCatV2.40B198,2017-02-19 12:53:00,
2017-02-19 07:58:00,29.9,29.1,29.60,NNW,333,3.0,3.0,97,0.00,,,0.00,0,WeatherCatV2.40B198,2017-02-19 12:58:00,
2017-02-19 08:03:00,29.7,29.0,29.60,NNW,333,0.0,0.0,97,0.00,,,0.00,0,WeatherCatV2.40B198,2017-02-19 13:03:00,
2017-02-19 08:08:00,29.5,28.8,29.60,NNW,333,0.0,0.0,97,0.00,,,0.00,0,WeatherCatV2.40B198,2017-02-19 13:08:00,
2017-02-19 08:13:00,29.5,28.8,29.60,NNW,333,0.0,0.0,97,0.00,,,0.00,0,WeatherCatV2.40B198,2017-02-19 13:13:00,
2017-02-19 08:18:00,29.7,29.0,29.60,NNW,333,0.0,0.0,97,0.00,,,0.00,0,WeatherCatV2.40B198,2017-02-19 13:18:00,
2017-02-19 08:23:00,29.9,29.1,29.60,North,355,1.0,1.0,97,0.00,,,0.00,0,WeatherCatV2.40B198,2017-02-19 13:23:00,
2017-02-19 08:28:00,29.8,28.8,29.61,North,355,0.0,1.0,96,0.00,,,0.00,0,WeatherCatV2.40B198,2017-02-19 13:28:00,
2017-02-19 08:33:00,29.9,28.6,29.61,North,355,0.0,0.0,95,0.00,,,0.00,0,WeatherCatV2.40B198,2017-02-19 13:33:00,
2017-02-19 08:38:00,30.1,28.6,29.60,North,355,0.0,0.0,94,0.00,,,0.00,0,WeatherCatV2.40B198,2017-02-19 13:38:00,
2017-02-19 08:43:00,30.4,28.9,29.60,North,355,0.0,0.0,94,0.00,,,0.00,0,WeatherCatV2.40B198,2017-02-19 13:43:00,
2017-02-19 08:48:00,30.8,29.5,29.61,North,355,0.0,0.0,95,0.00,,,0.00,0,WeatherCatV2.40B198,2017-02-19 13:48:00,
2017-02-19 08:53:00,31.3,30.3,29.61,North,355,0.0,0.0,96,0.00,,,0.00,0,WeatherCatV2.40B198,2017-02-19 13:53:00,
2017-02-19 08:58:00,31.8,30.8,29.60,North,355,0.0,0.0,96,0.00,,,0.00,0,WeatherCatV2.40B198,2017-02-19 13:58:00,
2017-02-19 09:03:00,32.4,31.4,29.61,North,355,0.0,0.0,96,0.00,,,0.00,0,WeatherCatV2.40B198,2017-02-19 14:03:00,
2017-02-19 09:08:00,32.9,31.9,29.61,North,355,0.0,0.0,96,0.00,,,0.00,0,WeatherCatV2.40B198,2017-02-19 14:08:00,
2017-02-19 09:13:00,33.6,32.6,29.61,North,355,0.0,0.0,96,0.00,,,0.00,0,WeatherCatV2.40B198,2017-02-19 14:13:00,
2017-02-19 09:18:00,34.6,33.3,29.60,North,355,0.0,0.0,95,0.00,,,0.00,0,WeatherCatV2.40B198,2017-02-19 14:18:00,
2017-02-19 09:23:00,35.9,34.1,29.61,North,355,0.0,0.0,93,0.00,,,0.00,0,WeatherCatV2.40B198,2017-02-19 14:23:00,
2017-02-19 09:28:00,37.0,34.9,29.61,North,355,0.0,0.0,92,0.00,,,0.00,0,WeatherCatV2.40B198,2017-02-19 14:28:00,
2017-02-19 09:33:00,37.8,34.8,29.60,North,355,0.0,0.0,89,0.00,,,0.00,0,WeatherCatV2.40B198,2017-02-19 14:33:00,
2017-02-19 09:38:00,38.7,35.5,29.60,North,355,0.0,1.0,88,0.00,,,0.00,5,WeatherCatV2.40B198,2017-02-19 14:38:00,
2017-02-19 09:43:00,39.8,35.4,29.60,North,355,0.0,0.0,84,0.00,,,0.00,5,WeatherCatV2.40B198,2017-02-19 14:43:00,
2017-02-19 09:48:00,40.7,35.3,29.60,North,355,0.0,0.0,81,0.00,,,0.00,0,WeatherCatV2.40B198,2017-02-19 14:48:00,
2017-02-19 09:53:00,41.5,35.8,29.60,North,355,0.0,1.0,80,0.00,,,0.01,0,WeatherCatV2.40B198,2017-02-19 14:53:00,
2017-02-19 09:58:00,42.0,35.3,29.60,North,355,0.0,0.0,77,0.12,,,0.02,0,WeatherCatV2.40B198,2017-02-19 14:58:00,
2017-02-19 10:03:00,42.5,35.5,29.60,North,355,0.0,0.0,76,0.14,,,0.03,0,WeatherCatV2.40B198,2017-02-19 15:03:00,
2017-02-19 10:08:00,42.7,35.3,29.60,North,355,0.0,1.0,75,0.15,,,0.04,0,WeatherCatV2.40B198,2017-02-19 15:08:00,
2017-02-19 10:13:00,43.0,35.6,29.60,ENE,63,0.0,0.0,75,0.18,,,0.06,0,WeatherCatV2.40B198,2017-02-19 15:13:00,
2017-02-19 10:18:00,43.2,35.5,29.60,West,279,0.0,2.0,74,0.14,,,0.07,0,WeatherCatV2.40B198,2017-02-19 15:18:00,
2017-02-19 10:23:00,43.6,35.5,29.60,WSW,248,0.0,3.0,73,0.18,,,0.08,0,WeatherCatV2.40B198,2017-02-19 15:23:00,
2017-02-19 10:28:00,44.0,35.9,29.60,WNW,300,1.0,1.0,73,0.24,,,0.10,0,WeatherCatV2.40B198,2017-02-19 15:28:00,
2017-02-19 10:33:00,44.3,35.8,29.60,SSE,155,0.0,0.0,72,0.20,,,0.12,0,WeatherCatV2.40B198,2017-02-19 15:33:00,
2017-02-19 10:38:00,44.6,35.8,29.60,NNE,20,0.0,3.0,71,0.14,,,0.13,0,WeatherCatV2.40B198,2017-02-19 15:38:00,
2017-02-19 10:43:00,45.0,35.8,29.61,NE,38,0.0,0.0,70,0.17,,,0.14,0,WeatherCatV2.40B198,2017-02-19 15:43:00,
2017-02-19 10:48:00,45.4,35.8,29.61,West,280,1.0,7.0,69,0.13,,,0.15,0,WeatherCatV2.40B198,2017-02-19 15:48:00,
2017-02-19 10:53:00,45.9,35.9,29.61,NNE,25,6.0,8.0,68,0.15,,,0.16,0,WeatherCatV2.40B198,2017-02-19 15:53:00,
2017-02-19 10:58:00,46.5,36.1,29.61,WNW,290,0.0,1.0,67,0.17,,,0.18,5,WeatherCatV2.40B198,2017-02-19 15:58:00,
2017-02-19 11:03:00,46.9,36.1,29.61,West,272,0.0,0.0,66,0.14,,,0.19,5,WeatherCatV2.40B198,2017-02-19 16:03:00,
2017-02-19 11:08:00,47.4,35.8,29.61,NE,43,1.0,1.0,64,0.17,,,0.20,5,WeatherCatV2.40B198,2017-02-19 16:08:00,
2017-02-19 11:13:00,48.1,36.5,29.60,NW,317,0.0,4.0,64,0.20,,,0.22,5,WeatherCatV2.40B198,2017-02-19 16:13:00,
2017-02-19 11:18:00,48.6,36.2,29.60,South,173,0.0,0.0,62,0.16,,,0.23,0,WeatherCatV2.40B198,2017-02-19 16:18:00,
2017-02-19 11:23:00,48.8,36.0,29.60,SSE,148,0.0,4.0,61,0.13,,,0.24,0,WeatherCatV2.40B198,2017-02-19 16:23:00,
2017-02-19 11:28:00,49.0,35.7,29.60,East,97,0.0,2.0,60,0.15,,,0.26,0,WeatherCatV2.40B198,2017-02-19 16:28:00,
2017-02-19 11:33:00,49.0,35.7,29.60,SSE,157,0.0,2.0,60,0.12,,,0.27,0,WeatherCatV2.40B198,2017-02-19 16:33:00,
2017-02-19 11:38:00,49.1,35.8,29.60,West,263,0.0,2.0,60,0.15,,,0.28,0,WeatherCatV2.40B198,2017-02-19 16:38:00,
2017-02-19 11:43:00,49.1,35.8,29.60,WSW,256,0.0,1.0,60,0.10,,,0.29,0,WeatherCatV2.40B198,2017-02-19 16:43:00,
2017-02-19 11:48:00,49.2,35.9,29.60,WSW,247,0.0,3.0,60,0.13,,,0.30,0,WeatherCatV2.40B198,2017-02-19 16:48:00,
2017-02-19 11:53:00,49.2,35.9,29.60,WSW,248,0.0,1.0,60,0.10,,,0.30,0,WeatherCatV2.40B198,2017-02-19 16:53:00,
2017-02-19 11:58:00,49.5,35.8,29.60,SE,146,0.0,3.0,59,0.09,,,0.31,7,WeatherCatV2.40B198,2017-02-19 16:58:00,
2017-02-19 12:03:00,49.9,36.2,29.60,WNW,289,0.0,5.0,59,0.11,,,0.32,7,WeatherCatV2.40B198,2017-02-19 17:03:00,
2017-02-19 12:08:00,50.6,36.4,29.59,ENE,64,0.0,3.0,58,0.08,,,0.33,7,WeatherCatV2.40B198,2017-02-19 17:08:00,
2017-02-19 12:13:00,51.2,36.5,29.59,SE,145,0.0,3.0,57,0.14,,,0.34,7,WeatherCatV2.40B198,2017-02-19 17:13:00,
2017-02-19 12:18:00,51.6,36.0,29.59,SW,220,3.0,7.0,55,0.11,,,0.35,7,WeatherCatV2.40B198,2017-02-19 17:18:00,
2017-02-19 12:23:00,51.9,36.2,29.60,NNW,333,0.0,4.0,55,0.13,,,0.36,7,WeatherCatV2.40B198,2017-02-19 17:23:00,
2017-02-19 12:28:00,52.1,36.0,29.60,WNW,298,0.0,4.0,54,0.09,,,0.37,7,WeatherCatV2.40B198,2017-02-19 17:28:00,
2017-02-19 12:33:00,52.5,36.3,29.60,NNE,26,1.0,3.0,54,0.15,,,0.38,0,WeatherCatV2.40B198,2017-02-19 17:33:00,
2017-02-19 12:38:00,52.6,36.4,29.60,NNE,26,2.0,3.0,54,0.13,,,0.39,0,WeatherCatV2.40B198,2017-02-19 17:38:00,
2017-02-19 12:43:00,52.5,35.9,29.60,NW,319,0.0,4.0,53,0.14,,,0.40,0,WeatherCatV2.40B198,2017-02-19 17:43:00,
2017-02-19 12:48:00,52.4,35.8,29.61,NNW,336,0.0,2.0,53,0.10,,,0.41,0,WeatherCatV2.40B198,2017-02-19 17:48:00,
2017-02-19 12:53:00,52.0,35.4,29.61,WNW,300,3.0,3.0,53,0.11,,,0.42,0,WeatherCatV2.40B198,2017-02-19 17:53:00,
2017-02-19 12:58:00,51.4,36.2,29.61,NW,309,0.0,2.0,56,0.08,,,0.42,0,WeatherCatV2.40B198,2017-02-19 17:58:00,
2017-02-19 13:03:00,50.7,35.6,29.62,NNW,348,0.0,10.0,56,0.07,,,0.43,0,WeatherCatV2.40B198,2017-02-19 18:03:00,
2017-02-19 13:08:00,50.1,36.8,29.62,North,5,0.0,5.0,60,0.08,,,0.44,0,WeatherCatV2.40B198,2017-02-19 18:08:00,
2017-02-19 13:13:00,49.8,36.0,29.62,NW,320,2.0,3.0,59,0.08,,,0.44,0,WeatherCatV2.40B198,2017-02-19 18:13:00,
2017-02-19 13:18:00,49.8,35.6,29.62,North,0,4.0,7.0,58,0.06,,,0.45,0,WeatherCatV2.40B198,2017-02-19 18:18:00,
2017-02-19 13:23:00,49.8,35.2,29.62,NNE,20,0.0,1.0,57,0.08,,,0.46,0,WeatherCatV2.40B198,2017-02-19 18:23:00,
2017-02-19 13:28:00,49.9,34.8,29.62,North,9,3.0,5.0,56,0.08,,,0.46,0,WeatherCatV2.40B198,2017-02-19 18:28:00,
2017-02-19 13:33:00,49.7,34.2,29.63,North,355,3.0,7.0,55,0.06,,,0.46,0,WeatherCatV2.40B198,2017-02-19 18:33:00,
2017-02-19 13:38:00,49.6,34.1,29.63,North,355,0.0,4.0,55,0.05,,,0.47,0,WeatherCatV2.40B198,2017-02-19 18:38:00,
2017-02-19 13:43:00,49.5,33.1,29.63,North,0,2.0,2.0,53,0.05,,,0.47,0,WeatherCatV2.40B198,2017-02-19 18:43:00,
2017-02-19 13:48:00,49.4,33.5,29.63,NNE,15,7.0,7.0,54,0.05,,,0.47,0,WeatherCatV2.40B198,2017-02-19 18:48:00,
2017-02-19 13:58:00,49.0,33.1,29.64,NNE,20,3.0,5.0,54,0.05,,,0.48,0,WeatherCatV2.40B198,2017-02-19 18:58:00,
2017-02-19 14:03:00,48.8,32.9,29.64,NE,38,4.0,6.0,54,0.04,,,0.48,0,WeatherCatV2.40B198,2017-02-19 19:03:00,
2017-02-19 14:13:00,48.6,32.7,29.65,NNE,28,0.0,1.0,54,0.00,,,0.48,0,WeatherCatV2.40B198,2017-02-19 19:13:00,
2017-02-19 14:18:00,48.4,33.4,29.65,NNW,334,0.0,5.0,56,0.00,,,0.49,0,WeatherCatV2.40B198,2017-02-19 19:18:00,
2017-02-19 14:28:00,47.9,33.0,29.66,WSW,255,0.0,1.0,56,0.00,,,0.49,0,WeatherCatV2.40B198,2017-02-19 19:28:00,
2017-02-19 14:33:00,47.6,33.1,29.66,SSE,165,0.0,0.0,57,0.00,,,0.49,0,WeatherCatV2.40B198,2017-02-19 19:33:00,
2017-02-19 14:38:00,47.4,32.9,29.66,NNW,331,2.0,3.0,57,0.00,,,0.49,0,WeatherCatV2.40B198,2017-02-19 19:38:00,
2017-02-19 14:43:00,47.1,33.1,29.67,North,350,1.0,5.0,58,0.00,,,0.49,0,WeatherCatV2.40B198,2017-02-19 19:43:00,
2017-02-19 14:48:00,46.9,33.3,29.67,NE,42,0.0,2.0,59,0.00,,,0.49,0,WeatherCatV2.40B198,2017-02-19 19:48:00,
2017-02-19 14:53:00,46.6,33.5,29.67,West,263,0.0,1.0,60,0.00,,,0.50,0,WeatherCatV2.40B198,2017-02-19 19:53:00,
2017-02-19 14:58:00,46.4,33.3,29.68,West,263,0.0,0.0,60,0.00,,,0.50,0,WeatherCatV2.40B198,2017-02-19 19:58:00,
2017-02-19 15:03:00,46.1,33.0,29.68,North,5,0.0,0.0,60,0.00,,,0.50,0,WeatherCatV2.40B198,2017-02-19 20:03:00,
2017-02-19 15:08:00,45.8,33.1,29.68,NW,306,0.0,2.0,61,0.00,,,0.50,0,WeatherCatV2.40B198,2017-02-19 20:08:00,
2017-02-19 15:13:00,45.6,32.9,29.69,NNW,338,2.0,5.0,61,0.00,,,0.50,0,WeatherCatV2.40B198,2017-02-19 20:13:00,
2017-02-19 15:18:00,45.7,33.0,29.69,NW,319,0.0,0.0,61,0.00,,,0.50,0,WeatherCatV2.40B198,2017-02-19 20:18:00,
2017-02-19 15:23:00,45.6,32.9,29.69,NW,312,2.0,2.0,61,0.00,,,0.50,0,WeatherCatV2.40B198,2017-02-19 20:23:00,
2017-02-19 15:28:00,45.5,33.7,29.70,NE,43,1.0,1.0,63,0.00,,,0.50,0,WeatherCatV2.40B198,2017-02-19 20:28:00,
2017-02-19 15:33:00,45.4,33.5,29.70,NW,319,1.0,1.0,63,0.00,,,0.50,0,WeatherCatV2.40B198,2017-02-19 20:33:00,
2017-02-19 15:38:00,45.3,33.1,29.70,NW,325,0.0,6.0,62,0.00,,,0.50,0,WeatherCatV2.40B198,2017-02-19 20:38:00,
2017-02-19 15:43:00,45.2,33.0,29.70,NE,46,0.0,0.0,62,0.00,,,0.50,0,WeatherCatV2.40B198,2017-02-19 20:43:00,
2017-02-19 15:48:00,45.0,33.2,29.70,NE,46,0.0,0.0,63,0.00,,,0.50,0,WeatherCatV2.40B198,2017-02-19 20:48:00,
2017-02-19 15:53:00,44.9,33.1,29.71,NE,46,0.0,1.0,63,0.00,,,0.50,0,WeatherCatV2.40B198,2017-02-19 20:53:00,
2017-02-19 15:58:00,44.8,33.4,29.71,North,9,0.0,1.0,64,0.00,,,0.50,0,WeatherCatV2.40B198,2017-02-19 20:58:00,
2017-02-19 16:03:00,44.6,33.6,29.71,North,0,0.0,0.0,65,0.00,,,0.50,0,WeatherCatV2.40B198,2017-02-19 21:03:00,
2017-02-19 16:08:00,44.4,33.4,29.71,North,0,0.0,2.0,65,0.00,,,0.50,0,WeatherCatV2.40B198,2017-02-19 21:08:00,
2017-02-19 16:18:00,43.7,33.1,29.72,NNW,343,0.0,0.0,66,0.00,,,0.50,0,WeatherCatV2.40B198,2017-02-19 21:18:00,
2017-02-19 16:23:00,43.5,33.3,29.72,NNW,343,0.0,1.0,67,0.00,,,0.50,0,WeatherCatV2.40B198,2017-02-19 21:23:00,
2017-02-19 16:28:00,43.2,33.0,29.73,NNW,339,0.0,1.0,67,0.00,,,0.50,0,WeatherCatV2.40B198,2017-02-19 21:28:00,
2017-02-19 16:33:00,43.0,32.8,29.73,North,355,4.0,4.0,67,0.00,,,0.50,0,WeatherCatV2.40B198,2017-02-19 21:33:00,
2017-02-19 16:38:00,42.9,33.1,29.73,North,351,0.0,3.0,68,0.00,,,0.50,0,WeatherCatV2.40B198,2017-02-19 21:38:00,
2017-02-19 16:43:00,42.8,33.3,29.74,North,0,1.0,1.0,69,0.00,,,0.50,0,WeatherCatV2.40B198,2017-02-19 21:43:00,
2017-02-19 16:48:00,42.8,33.3,29.74,NNW,348,0.0,1.0,69,0.00,,,0.50,0,WeatherCatV2.40B198,2017-02-19 21:48:00,
2017-02-19 16:53:00,42.7,32.9,29.74,NNW,338,0.0,3.0,68,0.00,,,0.50,0,WeatherCatV2.40B198,2017-02-19 21:53:00,
2017-02-19 16:58:00,42.6,33.2,29.75,North,355,0.0,2.0,69,0.00,,,0.50,0,WeatherCatV2.40B198,2017-02-19 21:58:00,
2017-02-19 17:03:00,42.4,33.3,29.75,North,11,3.0,4.0,70,0.00,,,0.50,0,WeatherCatV2.40B198,2017-02-19 22:03:00,
2017-02-19 17:08:00,42.2,33.1,29.75,North,355,0.0,1.0,70,0.00,,,0.51,0,WeatherCatV2.40B198,2017-02-19 22:08:00,
2017-02-19 17:13:00,42.0,32.9,29.76,North,355,0.0,0.0,70,0.00,,,0.51,0,WeatherCatV2.40B198,2017-02-19 22:13:00,
2017-02-19 17:18:00,41.8,33.1,29.76,North,355,0.0,0.0,71,0.00,,,0.51,0,WeatherCatV2.40B198,2017-02-19 22:18:00,
2017-02-19 17:23:00,41.5,32.8,29.76,NW,305,0.0,0.0,71,0.00,,,0.51,0,WeatherCatV2.40B198,2017-02-19 22:23:00,
2017-02-19 17:28:00,41.1,32.8,29.77,NNW,334,1.0,1.0,72,0.00,,,0.51,0,WeatherCatV2.40B198,2017-02-19 22:28:00,
2017-02-19 17:34:00,40.9,32.9,29.77,NW,316,0.0,0.0,73,0.00,,,0.51,0,WeatherCatV2.40B198,2017-02-19 22:34:00,
2017-02-19 17:39:00,40.6,32.6,29.77,NNW,331,0.0,0.0,73,0.00,,,0.51,0,WeatherCatV2.40B198,2017-02-19 22:39:00,
2017-02-19 17:44:00,40.4,32.8,29.77,NNW,334,0.0,1.0,74,0.00,,,0.51,0,WeatherCatV2.40B198,2017-02-19 22:44:00,
2017-02-19 17:49:00,40.2,32.6,29.78,NNW,334,0.0,1.0,74,0.00,,,0.51,0,WeatherCatV2.40B198,2017-02-19 22:49:00,
2017-02-19 17:54:00,40.0,32.4,29.78,West,260,0.0,2.0,74,0.00,,,0.51,0,WeatherCatV2.40B198,2017-02-19 22:54:00,
2017-02-19 17:59:00,39.8,32.2,29.79,WNW,297,0.0,2.0,74,0.00,,,0.51,0,WeatherCatV2.40B198,2017-02-19 22:59:00,
2017-02-19 18:04:00,39.7,32.4,29.79,NW,304,0.0,3.0,75,0.00,,,0.51,0,WeatherCatV2.40B198,2017-02-19 23:04:00,
2017-02-19 18:09:00,39.6,32.7,29.79,WNW,299,2.0,2.0,76,0.00,,,0.51,0,WeatherCatV2.40B198,2017-02-19 23:09:00,
2017-02-19 18:14:00,39.6,32.3,29.79,WNW,296,0.0,2.0,75,0.00,,,0.51,0,WeatherCatV2.40B198,2017-02-19 23:14:00,
2017-02-19 18:19:00,39.7,32.4,29.80,WNW,296,0.0,0.0,75,0.00,,,0.51,0,WeatherCatV2.40B198,2017-02-19 23:19:00,
2017-02-19 18:24:00,39.6,32.7,29.80,WNW,296,0.0,1.0,76,0.00,,,0.51,0,WeatherCatV2.40B198,2017-02-19 23:24:00,
2017-02-19 18:29:00,39.5,32.6,29.80,WNW,292,0.0,2.0,76,0.00,,,0.51,0,WeatherCatV2.40B198,2017-02-19 23:29:00,
2017-02-19 18:34:00,39.4,32.5,29.80,WNW,292,0.0,3.0,76,0.00,,,0.51,0,WeatherCatV2.40B198,2017-02-19 23:34:00,
2017-02-19 18:39:00,39.2,32.3,29.79,WSW,250,0.0,2.0,76,0.00,,,0.51,0,WeatherCatV2.40B198,2017-02-19 23:39:00,
2017-02-19 18:44:00,38.9,32.0,29.80,WNW,290,0.0,1.0,76,0.00,,,0.51,0,WeatherCatV2.40B198,2017-02-19 23:44:00,
2017-02-19 18:49:00,38.8,31.9,29.80,WSW,242,0.0,2.0,76,0.00,,,0.51,0,WeatherCatV2.40B198,2017-02-19 23:49:00,
2017-02-19 18:54:00,38.8,31.9,29.80,WNW,282,0.0,1.0,76,0.00,,,0.51,0,WeatherCatV2.40B198,2017-02-19 23:54:00,
2017-02-19 18:59:00,38.7,31.5,29.80,West,267,0.0,0.0,75,0.00,,,0.51,0,WeatherCatV2.40B198,2017-02-19 23:59:00,
2017-02-19 19:04:00,38.7,31.5,29.80,West,267,0.0,0.0,75,0.00,,,0.51,0,WeatherCatV2.40B198,2017-02-20 00:04:00,
2017-02-19 19:09:00,38.7,31.1,29.80,SW,234,0.0,3.0,74,0.00,,,0.51,0,WeatherCatV2.40B198,2017-02-20 00:09:00,
2017-02-19 19:14:00,38.7,31.1,29.80,North,0,0.0,0.0,74,0.00,,,0.51,0,WeatherCatV2.40B198,2017-02-20 00:14:00,
2017-02-19 19:19:00,38.7,31.1,29.80,WSW,251,0.0,1.0,74,0.00,,,0.51,0,WeatherCatV2.40B198,2017-02-20 00:19:00,
2017-02-19 19:24:00,38.8,31.2,29.80,SE,127,0.0,0.0,74,0.00,,,0.51,0,WeatherCatV2.40B198,2017-02-20 00:24:00,
2017-02-19 19:29:00,38.8,31.2,29.81,SE,127,0.0,3.0,74,0.00,,,0.51,0,WeatherCatV2.40B198,2017-02-20 00:29:00,
2017-02-19 19:34:00,38.8,31.6,29.81,SE,136,0.0,0.0,75,0.00,,,0.51,0,WeatherCatV2.40B198,2017-02-20 00:34:00,
2017-02-19 19:39:00,38.7,31.1,29.81,SE,136,0.0,0.0,74,0.00,,,0.51,0,WeatherCatV2.40B198,2017-02-20 00:39:00,
2017-02-19 19:44:00,38.6,31.0,29.81,SE,136,0.0,0.0,74,0.00,,,0.51,0,WeatherCatV2.40B198,2017-02-20 00:44:00,
2017-02-19 19:49:00,38.5,31.3,29.81,SE,136,0.0,0.0,75,0.00,,,0.51,0,WeatherCatV2.40B198,2017-02-20 00:49:00,
2017-02-19 19:54:00,38.3,31.4,29.81,SE,136,0.0,0.0,76,0.00,,,0.51,0,WeatherCatV2.40B198,2017-02-20 00:54:00,
2017-02-19 19:59:00,38.2,31.3,29.81,SE,136,0.0,0.0,76,0.00,,,0.51,0,WeatherCatV2.40B198,2017-02-20 00:59:00,
2017-02-19 20:04:00,38.0,31.4,29.81,SE,136,0.0,0.0,77,0.00,,,0.51,0,WeatherCatV2.40B198,2017-02-20 01:04:00,
2017-02-19 20:09:00,37.8,31.2,29.81,SE,136,0.0,0.0,77,0.00,,,0.51,0,WeatherCatV2.40B198,2017-02-20 01:09:00,
2017-02-19 20:14:00,37.6,31.0,29.81,SE,136,0.0,0.0,77,0.00,,,0.51,0,WeatherCatV2.40B198,2017-02-20 01:14:00,
2017-02-19 20:19:00,37.4,31.2,29.82,SE,136,0.0,0.0,78,0.00,,,0.51,0,WeatherCatV2.40B198,2017-02-20 01:19:00,
2017-02-19 20:24:00,37.2,31.0,29.82,SE,136,0.0,0.0,78,0.00,,,0.51,0,WeatherCatV2.40B198,2017-02-20 01:24:00,
2017-02-19 20:29:00,37.1,30.9,29.82,SE,144,0.0,1.0,78,0.00,,,0.51,0,WeatherCatV2.40B198,2017-02-20 01:29:00,
2017-02-19 20:34:00,37.0,31.1,29.82,SE,144,0.0,1.0,79,0.00,,,0.51,0,WeatherCatV2.40B198,2017-02-20 01:34:00,
2017-02-19 20:39:00,36.8,30.9,29.83,SE,144,0.0,0.0,79,0.00,,,0.51,0,WeatherCatV2.40B198,2017-02-20 01:39:00,
2017-02-19 20:44:00,36.8,30.9,29.83,NW,312,0.0,0.0,79,0.00,,,0.51,0,WeatherCatV2.40B198,2017-02-20 01:44:00,
2017-02-19 20:49:00,36.8,30.9,29.83,West,262,0.0,0.0,79,0.00,,,0.51,0,WeatherCatV2.40B198,2017-02-20 01:49:00,
2017-02-19 20:54:00,36.7,31.1,29.84,West,262,0.0,0.0,80,0.00,,,0.51,0,WeatherCatV2.40B198,2017-02-20 01:54:00,
2017-02-19 20:59:00,36.8,31.2,29.84,NNW,337,0.0,3.0,80,0.00,,,0.51,0,WeatherCatV2.40B198,2017-02-20 01:59:00,
2017-02-19 21:04:00,36.8,31.2,29.84,NNW,337,0.0,0.0,80,0.00,,,0.51,0,WeatherCatV2.40B198,2017-02-20 02:04:00,
2017-02-19 21:09:00,36.9,31.3,29.84,NNW,336,0.0,0.0,80,0.00,,,0.51,0,WeatherCatV2.40B198,2017-02-20 02:09:00,
2017-02-19 21:14:00,36.9,31.9,29.84,NNW,335,0.0,1.0,82,0.00,,,0.51,0,WeatherCatV2.40B198,2017-02-20 02:14:00,
2017-02-19 21:19:00,36.8,31.8,29.84,NNW,335,0.0,0.0,82,0.00,,,0.51,0,WeatherCatV2.40B198,2017-02-20 02:19:00,
2017-02-19 21:24:00,36.8,32.1,29.85,NNW,335,0.0,1.0,83,0.00,,,0.51,0,WeatherCatV2.40B198,2017-02-20 02:24:00,
2017-02-19 21:29:00,36.9,32.2,29.85,NNW,343,4.0,5.0,83,0.00,,,0.51,0,WeatherCatV2.40B198,2017-02-20 02:29:00,
2017-02-19 21:34:00,37.1,32.7,29.86,NNW,343,0.0,2.0,84,0.00,,,0.51,0,WeatherCatV2.40B198,2017-02-20 02:34:00,
2017-02-19 21:39:00,37.3,33.2,29.86,North,0,0.0,1.0,85,0.00,,,0.51,0,WeatherCatV2.40B198,2017-02-20 02:39:00,
2017-02-19 21:44:00,37.4,33.6,29.86,North,355,0.0,2.0,86,0.00,,,0.51,0,WeatherCatV2.40B198,2017-02-20 02:44:00,
2017-02-19 21:49:00,37.4,33.6,29.86,North,350,1.0,2.0,86,0.00,,,0.51,0,WeatherCatV2.40B198,2017-02-20 02:49:00,
2017-02-19 21:54:00,37.4,33.6,29.86,North,0,2.0,5.0,86,0.00,,,0.51,0,WeatherCatV2.40B198,2017-02-20 02:54:00,
2017-02-19 21:59:00,37.5,33.7,29.87,North,355,3.0,6.0,86,0.00,,,0.51,0,WeatherCatV2.40B198,2017-02-20 02:59:00,
2017-02-19 22:04:00,37.5,33.7,29.87,North,0,3.0,9.0,86,0.00,,,0.51,0,WeatherCatV2.40B198,2017-02-20 03:04:00,
2017-02-19 22:09:00,37.4,33.9,29.87,North,5,6.0,6.0,87,0.00,,,0.51,0,WeatherCatV2.40B198,2017-02-20 03:09:00,
2017-02-19 22:14:00,37.3,33.8,29.87,North,0,3.0,5.0,87,0.00,,,0.51,0,WeatherCatV2.40B198,2017-02-20 03:14:00,
2017-02-19 22:19:00,37.1,33.6,29.88,NNW,346,3.0,4.0,87,0.00,,,0.51,0,WeatherCatV2.40B198,2017-02-20 03:19:00,
2017-02-19 22:24:00,37.1,33.9,29.88,NNW,344,2.0,2.0,88,0.00,,,0.51,0,WeatherCatV2.40B198,2017-02-20 03:24:00,
2017-02-19 22:29:00,37.0,33.8,29.88,NNW,331,0.0,1.0,88,0.00,,,0.51,0,WeatherCatV2.40B198,2017-02-20 03:29:00,
2017-02-19 22:34:00,37.0,33.8,29.88,North,355,0.0,1.0,88,0.00,,,0.51,0,WeatherCatV2.40B198,2017-02-20 03:34:00,
2017-02-19 22:39:00,36.8,33.6,29.88,North,355,1.0,1.0,88,0.00,,,0.51,0,WeatherCatV2.40B198,2017-02-20 03:39:00,
2017-02-19 22:44:00,36.7,33.5,29.88,NNW,340,0.0,2.0,88,0.00,,,0.51,0,WeatherCatV2.40B198,2017-02-20 03:44:00,
2017-02-19 22:49:00,36.6,33.4,29.89,NNW,345,0.0,3.0,88,0.00,,,0.51,0,WeatherCatV2.40B198,2017-02-20 03:49:00,
2017-02-19 22:54:00,36.5,33.0,29.89,North,5,4.0,4.0,87,0.00,,,0.51,0,WeatherCatV2.40B198,2017-02-20 03:54:00,
2017-02-19 22:59:00,36.5,32.7,29.89,North,355,0.0,3.0,86,0.00,,,0.51,0,WeatherCatV2.40B198,2017-02-20 03:59:00,
2017-02-19 23:04:00,36.5,32.7,29.89,NNW,342,0.0,1.0,86,0.00,,,0.51,0,WeatherCatV2.40B198,2017-02-20 04:04:00,
2017-02-19 23:09:00,36.5,32.7,29.89,North,0,0.0,3.0,86,0.00,,,0.51,0,WeatherCatV2.40B198,2017-02-20 04:09:00,
2017-02-19 23:14:00,36.5,32.4,29.89,North,355,3.0,3.0,85,0.00,,,0.51,0,WeatherCatV2.40B198,2017-02-20 04:14:00,
2017-02-19 23:19:00,36.5,32.1,29.89,NNW,346,1.0,4.0,84,0.00,,,0.51,0,WeatherCatV2.40B198,2017-02-20 04:19:00,
2017-02-19 23:24:00,36.6,32.2,29.89,North,0,1.0,3.0,84,0.00,,,0.51,0,WeatherCatV2.40B198,2017-02-20 04:24:00,
2017-02-19 23:29:00,36.7,32.0,29.89,North,0,3.0,4.0,83,0.00,,,0.51,0,WeatherCatV2.40B198,2017-02-20 04:29:00,
2017-02-19 23:34:00,36.8,31.8,29.89,NNW,336,3.0,4.0,82,0.00,,,0.51,0,WeatherCatV2.40B198,2017-02-20 04:34:00,
2017-02-19 23:39:00,36.9,31.6,29.90,North,355,2.0,5.0,81,0.00,,,0.51,0,WeatherCatV2.40B198,2017-02-20 04:39:00,
2017-02-19 23:44:00,37.0,31.7,29.90,North,11,2.0,4.0,81,0.00,,,0.51,0,WeatherCatV2.40B198,2017-02-20 04:44:00,
2017-02-19 23:49:00,37.0,31.4,29.90,NNW,333,3.0,7.0,80,0.00,,,0.51,0,WeatherCatV2.40B198,2017-02-20 04:49:00,